TimePDT,TemperatureF,Dew PointF,Humidity,Sea Level PressureIn,VisibilityMPH,Wind Direction,Wind SpeedMPH,Gust SpeedMPH,PrecipitationIn,Events,Conditions,WindDirDegrees,DateUTC
12:56 AM,80.1,24.1,13,29.88,10.0,WNW,20.7,28.8,N/A,,Clear,300,2013-06-17 07:56:00
1:56 AM,78.1,21.9,12,29.88,10.0,NW,10.4,-,N/A,,Clear,320,2013-06-17 08:56:00
2:56 AM,78.1,21.9,12,29.88,10.0,NNW,11.5,18.4,N/A,,Clear,330,2013-06-17 09:56:00
3:56 AM,77.0,21.9,13,29.88,10.0,North,6.9,-,N/A,,Clear,350,2013-06-17 10:56:00
4:56 AM,75.9,27.0,16,29.88,10.0,NNW,5.8,-,N/A,,Clear,330,2013-06-17 11:56:00
5:56 AM,73.0,28.0,19,29.90,10.0,NNW,4.6,-,N/A,,Clear,340,2013-06-17 12:56:00
6:56 AM,75.0,30.0,19,29.90,10.0,NNW,5.8,-,N/A,,Clear,330,2013-06-17 13:56:00
7:56 AM,80.1,28.9,15,29.91,10.0,NW,9.2,-,N/A,,Clear,320,2013-06-17 14:56:00
8:56 AM,82.9,28.0,14,29.92,10.0,NW,9.2,-,N/A,,Clear,320,2013-06-17 15:56:00
9:56 AM,87.1,25.0,10,29.91,10.0,NW,9.2,-,N/A,,Clear,310,2013-06-17 16:56:00
10:56 AM,90.0,23.0,9,29.90,10.0,Calm,Calm,-,N/A,,Clear,0,2013-06-17 17:56:00
11:56 AM,93.0,21.0,7,29.89,10.0,Calm,Calm,-,N/A,,Clear,0,2013-06-17 18:56:00
12:56 PM,93.9,19.0,7,29.87,10.0,Calm,Calm,-,N/A,,Clear,0,2013-06-17 19:56:00
1:56 PM,97.0,18.0,6,29.84,10.0,Variable,4.6,-,N/A,,Clear,0,2013-06-17 20:56:00
2:56 PM,99.0,18.0,5,29.82,10.0,East,6.9,-,N/A,,Clear,80,2013-06-17 21:56:00
3:56 PM,98.1,16.0,5,29.79,10.0,Variable,3.5,-,N/A,,Clear,0,2013-06-17 22:56:00
4:56 PM,100.0,16.0,5,29.77,10.0,North,4.6,-,N/A,,Clear,360,2013-06-17 23:56:00
5:56 PM,99.0,19.0,6,29.77,10.0,SSW,8.1,-,N/A,,Clear,210,2013-06-18 00:56:00
6:56 PM,97.0,21.9,7,29.76,10.0,SW,8.1,-,N/A,,Clear,220,2013-06-18 01:56:00
7:56 PM,93.0,28.0,10,29.76,10.0,SW,13.8,-,N/A,,Clear,230,2013-06-18 02:56:00
8:56 PM,91.0,33.1,13,29.78,10.0,WNW,16.1,-,N/A,,Clear,290,2013-06-18 03:56:00
9:56 PM,87.1,34.0,15,29.81,10.0,WNW,19.6,24.2,N/A,,Clear,300,2013-06-18 04:56:00
10:56 PM,84.0,32.0,15,29.81,10.0,West,19.6,25.3,N/A,,Clear,280,2013-06-18 05:56:00
11:56 PM,82.0,30.9,16,29.81,10.0,North,6.9,-,N/A,,Clear,350,2013-06-18 06:56:00